PROFILE

 METAR AND TAF INFORMATION
ADDS - METARS form results

(0818 UTC 19 August 2019)
http://aviationweather.gov/metar/data/
 
LICJ 190750Z 27004KT CAVOK 26/19 Q1016
LICJ 190720Z 30003KT 260V330 CAVOK 26/18 Q1016
TAF LICJ 190500Z 1906/2006 VRB05KT CAVOK BECMG 1909/1911 02014KT BECMG 1920/1922 VRB05KT 

 AIRPORT MAP

 RUNWAY INFORMATION
Runway 02 Runway length 6804 ft Runway width 148 ft
Runway elevation 42 ft Runway displaced threshold 10 ft Runway heading 24
Runway 20 Runway length 6804 ft Runway width 148 ft
Runway elevation 22 ft Runway displaced threshold 10 ft Runway heading 204
Runway 07 Runway length 10912 ft Runway width 197 ft
Runway elevation 33 ft Runway displaced threshold 404 ft Runway heading 67
Runway 25 Runway length 10912 ft Runway width 197 ft
Runway elevation 50 ft Runway displaced threshold 679 ft Runway heading 247

 AIRPORT FREQUENCIES
Type APP Name APP Frequency 120.2 MHZ
Type GND Name RAISI GND Frequency 121.625 MHZ
Type TWR Name RAISI TWR Frequency 119.05 MHZ

 AIRPORT NEAR NAVIGATION AIDS
Type VOR-DME Name Palermo Frequency 112300 KHZ
Type NDB Name Palermo Frequency 356 KHZ
Type VOR-DME Name Raisi Frequency 113000 KHZ
Type NDB Name Raisi Frequency 329 KHZ